Zurück zum Katalog

STARLINK-2134

AktivKommunikationVLEO
NORAD 47407·PAYLOAD·🇺🇸 United States

Gestartet Jan 20, 2021 von Cape Canaveral Space Force Station

Loading…

Nächste Überflüge (nächste 24 Stunden)

TLE

AktuellSource: CelesTrak SupGP

Epoche: Sep 15, 2026, 00:04 UTC

1 47407C 21005BL  26258.00326389  .00004819  00000+0  14246-3 0  2583
2 47407  53.1583 237.4112 0003816  58.4385 358.5315 15.34360803    14

Verfolge STARLINK-2134 in Echtzeit mit AllMySat

Download on the App Store